Location: ????? ??????
(37.8317°N, 23.8750°E)
Time: 13:31:09
(UTC+00:00)

Cosmos 1315 Rocket - Pass Details

Date: 20 January 2021
Orbit: 530 x 567 km, 81.2° (Epoch: 03 March)

Event Time Altitude Azimuth Distance (km) Brightness Sun altitude
Rises 16:17:00 0° 348° (NNW) 2,700 6.3 -8.6°
Reaches altitude 10° 16:19:09 10° 346° (NNW) 1,810 5.4 -9.0°
Maximum altitude 16:23:07 70° 263° (W) 585 3.2 -9.7°
Drops below altitude 10° 16:27:06 10° 180° (S) 1,818 5.7 -10.5°
Sets 16:29:17 0° 178° (S) 2,714 6.6 -10.9°
